Regional Weather Roundup
Issued by NWS Charleston, WV

Home | Current Version | Previous Version | Text Only | Print | Product List | Glossary Off
Versions: 1 2 3 4 5 6 7 8 9 10 11 12 13 14 15 16 17 18 19 20 21 22 23 24 25 26 27 28 29 30 31 32 33 34 35 36 37 38 39 40 41 42 43 44 45 46 47 48 49 50

000
ASUS41 KRLX 280210
RWRRLX
West Virginia Regional Weather Roundup
National Weather Service Charleston WV
1000 PM EDT WED JUL 27 2016

Note: "fair" indicates few or no clouds below 12,000 feet with no
significant weather and/or obstructions to visibility.

WVZ003-280300-
Northern Panhandle of West Virginia

CITY           SKY/WX    TMP DP  RH WIND       PRES   REMARKS
WHEELING       MOCLDY    76  70  82 SE6       29.96R
$$

WVZ009-280300-
Northwest West Virginia

CITY           SKY/WX    TMP DP  RH WIND       PRES   REMARKS
PARKERSBURG      N/A     78  73  84 CALM      29.97R
$$

WVZ006-280300-
Western West Virginia

CITY           SKY/WX    TMP DP  RH WIND       PRES   REMARKS
HUNTINGTON       N/A     73  71  93 CALM      29.94S
$$

WVZ015-280300-
West Central West Virginia

CITY           SKY/WX    TMP DP  RH WIND       PRES   REMARKS
CHARLESTON     LGT RAIN  79  76  90 SE5       29.96F
$$

WVZ022-031-280300-
North Central West Virginia

CITY           SKY/WX    TMP DP  RH WIND       PRES   REMARKS
CLARKSBURG       N/A     76  69  79 CALM      29.98R
MORGANTOWN     CLOUDY    74  71  91 CALM      29.98R
$$

WVZ025-035-042-045-280300-
Southern West Virginia

CITY           SKY/WX    TMP DP  RH WIND       PRES   REMARKS
BECKLEY          N/A     71  69  93 SE7       30.08F
LOGAN          MOCLDY    73  73 100 W5        30.01R FOG
BLUEFIELD      MOCLDY    71  70  96 SE3       30.11S
LEWISBURG        N/A     71  69  92 CALM      30.07F
$$

WVZ047-280300-
Northern Mountains of West Virginia

CITY           SKY/WX    TMP DP  RH WIND       PRES   REMARKS
ELKINS         MOCLDY    74  69  85 CALM      30.04R
$$

WVZ052-280300-
Eastern Panhandle of West Virginia

CITY           SKY/WX    TMP DP  RH WIND       PRES   REMARKS
MARTINSBURG    MOCLDY    79  69  71 SE5       29.93R
PETERSBURG     MOCLDY    78  72  81 CALM      29.97R
$$



USA.gov is the U.S. government's official web portal to all federal, state and local government web resources and services.